Time,TemperatureF,DewpointF,PressureIn,WindDirection,WindDirectionDegrees,WindSpeedMPH,WindSpeedGustMPH,Humidity,HourlyPrecipIn,Conditions,Clouds,dailyrainin,SoftwareType,DateUTC
2013-09-23 00:01:00,71.8,55.2,29.55,ESE,110,0.0,0.0,56,0.00,,,0.00,meteohub,2013-09-23 06:01:00,
2013-09-23 00:06:00,72.0,55.4,29.55,ESE,111,0.0,0.0,56,0.00,,,0.00,meteohub,2013-09-23 06:06:00,
2013-09-23 00:12:00,72.0,55.4,29.55,ESE,111,0.0,0.0,56,0.00,,,0.00,meteohub,2013-09-23 06:12:00,
2013-09-23 00:17:00,72.1,54.5,29.55,ESE,111,0.0,0.0,54,0.00,,,0.00,meteohub,2013-09-23 06:17:00,
2013-09-23 00:22:00,72.1,54.5,29.55,ESE,111,0.0,0.0,54,0.00,,,0.00,meteohub,2013-09-23 06:22:00,
2013-09-23 00:27:00,72.3,55.2,29.55,ESE,107,0.0,0.0,55,0.00,,,0.00,meteohub,2013-09-23 06:27:00,
2013-09-23 00:32:00,72.3,55.2,29.55,East,83,0.0,0.0,55,0.00,,,0.00,meteohub,2013-09-23 06:32:00,
2013-09-23 00:37:00,72.3,55.2,29.55,East,83,0.0,0.0,55,0.00,,,0.00,meteohub,2013-09-23 06:37:00,
2013-09-23 00:42:00,72.3,55.8,29.56,East,83,0.0,0.0,56,0.00,,,0.00,meteohub,2013-09-23 06:42:00,
2013-09-23 00:47:00,72.1,55.6,29.56,East,83,0.0,0.0,56,0.00,,,0.00,meteohub,2013-09-23 06:47:00,
2013-09-23 00:52:00,72.1,56.1,29.56,East,83,0.0,0.0,57,0.00,,,0.00,meteohub,2013-09-23 06:52:00,
2013-09-23 00:57:00,72.0,55.9,29.56,East,83,0.0,0.0,57,0.00,,,0.00,meteohub,2013-09-23 06:57:00,
2013-09-23 01:03:00,71.8,55.8,29.56,East,83,0.0,0.0,57,0.00,,,0.00,meteohub,2013-09-23 07:03:00,
2013-09-23 01:08:00,71.6,55.6,29.56,East,83,0.0,0.0,57,0.00,,,0.00,meteohub,2013-09-23 07:08:00,
2013-09-23 01:13:00,71.4,55.4,29.56,East,83,0.0,0.0,57,0.00,,,0.00,meteohub,2013-09-23 07:13:00,
2013-09-23 01:18:00,71.6,56.1,29.56,East,83,0.0,0.0,58,0.00,,,0.00,meteohub,2013-09-23 07:18:00,
2013-09-23 01:23:00,71.4,55.9,29.56,East,83,0.0,0.0,58,0.00,,,0.00,meteohub,2013-09-23 07:23:00,
2013-09-23 01:28:00,71.4,55.9,29.56,East,83,0.0,0.0,58,0.00,,,0.00,meteohub,2013-09-23 07:28:00,
2013-09-23 01:34:00,71.8,56.1,29.56,East,83,0.0,0.0,58,0.00,,,0.00,meteohub,2013-09-23 07:34:00,
2013-09-23 01:39:00,72.0,56.3,29.56,East,83,0.0,0.0,58,0.00,,,0.00,meteohub,2013-09-23 07:39:00,
2013-09-23 01:44:00,72.0,55.9,29.56,East,83,0.0,0.0,57,0.00,,,0.00,meteohub,2013-09-23 07:44:00,
2013-09-23 01:49:00,72.0,56.3,29.56,East,83,0.0,0.0,58,0.00,,,0.00,meteohub,2013-09-23 07:49:00,
2013-09-23 01:54:00,71.6,56.1,29.56,East,83,0.0,0.0,58,0.00,,,0.00,meteohub,2013-09-23 07:54:00,
2013-09-23 01:59:00,71.2,56.1,29.57,East,83,0.0,0.0,59,0.00,,,0.00,meteohub,2013-09-23 07:59:00,
2013-09-23 02:04:00,70.7,56.1,29.57,East,83,0.0,0.0,60,0.00,,,0.00,meteohub,2013-09-23 08:04:00,
2013-09-23 02:10:00,70.2,56.1,29.57,East,83,0.0,0.0,61,0.00,,,0.00,meteohub,2013-09-23 08:10:00,
2013-09-23 02:15:00,69.6,55.9,29.57,East,83,0.0,0.0,62,0.00,,,0.00,meteohub,2013-09-23 08:15:00,
2013-09-23 02:20:00,69.1,55.9,29.57,East,83,0.0,0.0,63,0.00,,,0.00,meteohub,2013-09-23 08:20:00,
2013-09-23 02:25:00,68.5,55.4,29.57,East,83,0.0,0.0,63,0.00,,,0.00,meteohub,2013-09-23 08:25:00,
2013-09-23 02:30:00,68.4,55.8,29.57,East,83,0.0,0.0,64,0.00,,,0.00,meteohub,2013-09-23 08:30:00,
2013-09-23 02:35:00,68.2,55.6,29.57,East,83,0.0,0.0,64,0.00,,,0.00,meteohub,2013-09-23 08:35:00,
2013-09-23 02:40:00,68.2,55.6,29.57,East,83,0.0,0.0,64,0.00,,,0.00,meteohub,2013-09-23 08:40:00,
2013-09-23 02:46:00,68.4,55.2,29.57,East,83,0.0,0.0,63,0.00,,,0.00,meteohub,2013-09-23 08:46:00,
2013-09-23 02:51:00,68.2,55.0,29.57,East,83,0.0,0.0,63,0.00,,,0.00,meteohub,2013-09-23 08:51:00,
2013-09-23 02:56:00,68.2,55.0,29.57,East,83,0.0,0.0,63,0.00,,,0.00,meteohub,2013-09-23 08:56:00,
2013-09-23 03:01:00,67.8,55.2,29.57,East,83,0.0,0.0,64,0.00,,,0.00,meteohub,2013-09-23 09:01:00,
2013-09-23 03:06:00,67.6,55.0,29.57,East,83,0.0,0.0,64,0.00,,,0.00,meteohub,2013-09-23 09:06:00,
2013-09-23 03:11:00,67.3,55.0,29.57,East,83,0.0,0.0,65,0.00,,,0.00,meteohub,2013-09-23 09:11:00,
2013-09-23 03:17:00,66.9,55.2,29.58,East,83,0.0,0.0,66,0.00,,,0.00,meteohub,2013-09-23 09:17:00,
2013-09-23 03:22:00,66.6,54.9,29.58,East,83,0.0,0.0,66,0.00,,,0.00,meteohub,2013-09-23 09:22:00,
2013-09-23 03:27:00,66.4,55.0,29.58,East,83,0.0,0.0,67,0.00,,,0.00,meteohub,2013-09-23 09:27:00,
2013-09-23 03:32:00,66.0,54.7,29.58,East,83,0.0,0.0,67,0.00,,,0.00,meteohub,2013-09-23 09:32:00,
2013-09-23 03:37:00,66.0,54.7,29.58,East,83,0.0,0.0,67,0.00,,,0.00,meteohub,2013-09-23 09:37:00,
2013-09-23 03:42:00,66.0,54.7,29.59,East,83,0.0,0.0,67,0.00,,,0.00,meteohub,2013-09-23 09:42:00,
2013-09-23 03:47:00,65.8,54.5,29.59,East,83,0.0,0.0,67,0.00,,,0.00,meteohub,2013-09-23 09:47:00,
2013-09-23 03:52:00,65.7,54.0,29.59,East,83,0.0,0.0,66,0.00,,,0.00,meteohub,2013-09-23 09:52:00,
2013-09-23 03:57:00,65.7,54.3,29.59,East,83,0.0,0.0,67,0.00,,,0.00,meteohub,2013-09-23 09:57:00,
2013-09-23 04:02:00,65.5,53.8,29.59,East,83,0.0,0.0,66,0.00,,,0.00,meteohub,2013-09-23 10:02:00,
2013-09-23 04:07:00,65.7,54.0,29.59,East,83,0.0,0.0,66,0.00,,,0.00,meteohub,2013-09-23 10:07:00,
2013-09-23 04:13:00,65.8,53.8,29.59,East,83,0.0,0.0,65,0.00,,,0.00,meteohub,2013-09-23 10:13:00,
2013-09-23 04:18:00,65.8,52.9,29.59,East,83,0.0,0.0,63,0.00,,,0.00,meteohub,2013-09-23 10:18:00,
2013-09-23 04:23:00,66.0,52.7,29.59,East,83,0.0,0.0,62,0.00,,,0.00,meteohub,2013-09-23 10:23:00,
2013-09-23 04:28:00,66.2,52.9,29.59,East,84,0.0,0.0,62,0.00,,,0.00,meteohub,2013-09-23 10:28:00,
2013-09-23 04:33:00,66.0,52.7,29.59,East,84,0.0,0.0,62,0.00,,,0.00,meteohub,2013-09-23 10:33:00,
2013-09-23 04:38:00,65.8,52.5,29.60,East,84,0.0,0.0,62,0.00,,,0.00,meteohub,2013-09-23 10:38:00,
2013-09-23 04:43:00,65.5,52.5,29.59,East,84,0.0,0.0,63,0.00,,,0.00,meteohub,2013-09-23 10:43:00,
2013-09-23 04:49:00,65.1,52.2,29.60,East,84,0.0,0.0,63,0.00,,,0.00,meteohub,2013-09-23 10:49:00,
2013-09-23 04:54:00,64.9,52.5,29.60,East,84,0.0,0.0,64,0.00,,,0.00,meteohub,2013-09-23 10:54:00,
2013-09-23 04:59:00,64.6,52.2,29.60,East,84,0.0,0.0,64,0.00,,,0.00,meteohub,2013-09-23 10:59:00,
2013-09-23 05:04:00,64.2,51.8,29.60,East,84,0.0,0.0,64,0.00,,,0.00,meteohub,2013-09-23 11:04:00,
2013-09-23 05:09:00,64.0,51.3,29.61,East,84,0.0,0.0,63,0.00,,,0.00,meteohub,2013-09-23 11:09:00,
2013-09-23 05:14:00,64.0,51.3,29.61,East,84,0.0,0.0,63,0.00,,,0.00,meteohub,2013-09-23 11:14:00,
2013-09-23 05:20:00,64.4,50.7,29.61,East,84,0.0,0.0,61,0.00,,,0.00,meteohub,2013-09-23 11:20:00,
2013-09-23 05:25:00,64.6,50.9,29.61,East,84,0.0,0.0,61,0.00,,,0.00,meteohub,2013-09-23 11:25:00,
2013-09-23 05:30:00,64.6,50.9,29.62,East,84,0.0,0.0,61,0.00,,,0.00,meteohub,2013-09-23 11:30:00,
2013-09-23 05:35:00,64.2,51.4,29.62,East,84,0.0,0.0,63,0.00,,,0.00,meteohub,2013-09-23 11:35:00,
2013-09-23 05:40:00,63.9,51.4,29.62,East,84,0.0,0.0,64,0.00,,,0.00,meteohub,2013-09-23 11:40:00,
2013-09-23 05:46:00,63.5,50.7,29.62,East,84,0.0,0.0,63,0.00,,,0.00,meteohub,2013-09-23 11:46:00,
2013-09-23 05:51:00,63.5,50.7,29.62,East,84,0.0,0.0,63,0.00,,,0.00,meteohub,2013-09-23 11:51:00,
2013-09-23 05:56:00,63.7,50.9,29.62,East,84,0.0,0.0,63,0.00,,,0.00,meteohub,2013-09-23 11:56:00,
2013-09-23 06:01:00,63.7,50.9,29.62,East,84,0.0,0.0,63,0.00,,,0.00,meteohub,2013-09-23 12:01:00,
2013-09-23 06:07:00,63.7,50.9,29.62,East,84,0.0,0.0,63,0.00,,,0.00,meteohub,2013-09-23 12:07:00,
2013-09-23 06:12:00,63.5,51.1,29.62,East,84,0.0,0.0,64,0.00,,,0.00,meteohub,2013-09-23 12:12:00,
2013-09-23 06:17:00,63.1,50.7,29.63,East,84,0.0,0.0,64,0.00,,,0.00,meteohub,2013-09-23 12:17:00,
2013-09-23 06:22:00,62.8,50.4,29.63,East,84,0.0,0.0,64,0.00,,,0.00,meteohub,2013-09-23 12:22:00,
2013-09-23 06:27:00,62.4,50.5,29.63,East,84,0.0,0.0,65,0.00,,,0.00,meteohub,2013-09-23 12:27:00,
2013-09-23 06:32:00,62.1,50.5,29.63,East,84,0.0,0.0,66,0.00,,,0.00,meteohub,2013-09-23 12:32:00,
2013-09-23 06:37:00,61.5,50.0,29.63,East,84,0.0,0.0,66,0.00,,,0.00,meteohub,2013-09-23 12:37:00,
2013-09-23 06:42:00,61.3,50.4,29.64,East,84,0.0,0.0,67,0.00,,,0.00,meteohub,2013-09-23 12:42:00,
2013-09-23 06:47:00,61.0,50.4,29.64,East,84,0.0,0.0,68,0.00,,,0.00,meteohub,2013-09-23 12:47:00,
2013-09-23 06:52:00,60.6,50.4,29.64,East,84,0.0,0.0,69,0.00,,,0.00,meteohub,2013-09-23 12:52:00,
2013-09-23 06:57:00,60.4,50.2,29.65,East,84,0.0,0.0,69,0.00,,,0.00,meteohub,2013-09-23 12:57:00,
2013-09-23 07:02:00,60.3,50.0,29.65,East,84,0.0,0.0,69,0.00,,,0.00,meteohub,2013-09-23 13:02:00,
2013-09-23 07:07:00,60.3,50.0,29.65,East,84,0.0,0.0,69,0.00,,,0.00,meteohub,2013-09-23 13:07:00,
2013-09-23 07:12:00,60.3,50.4,29.65,East,84,0.0,0.0,70,0.00,,,0.00,meteohub,2013-09-23 13:12:00,
2013-09-23 07:17:00,60.3,50.4,29.65,East,84,0.0,0.0,70,0.00,,,0.00,meteohub,2013-09-23 13:17:00,
2013-09-23 07:22:00,60.4,50.2,29.65,East,84,0.0,0.0,69,0.00,,,0.00,meteohub,2013-09-23 13:22:00,
2013-09-23 07:27:00,61.2,50.9,29.66,East,84,0.0,0.0,69,0.00,,,0.00,meteohub,2013-09-23 13:27:00,
2013-09-23 07:32:00,61.7,50.7,29.66,East,84,0.0,0.0,67,0.00,,,0.00,meteohub,2013-09-23 13:32:00,
2013-09-23 07:37:00,62.4,50.9,29.66,East,84,0.0,0.0,66,0.00,,,0.00,meteohub,2013-09-23 13:37:00,
2013-09-23 07:42:00,63.0,50.2,29.66,East,84,0.0,0.0,63,0.00,,,0.00,meteohub,2013-09-23 13:42:00,
2013-09-23 07:47:00,63.3,50.5,29.67,East,84,0.0,0.0,63,0.00,,,0.00,meteohub,2013-09-23 13:47:00,
2013-09-23 07:52:00,63.9,50.5,29.67,East,84,0.0,0.0,62,0.00,,,0.00,meteohub,2013-09-23 13:52:00,
2013-09-23 07:57:00,64.6,50.4,29.67,East,82,0.0,0.0,60,0.00,,,0.00,meteohub,2013-09-23 13:57:00,
2013-09-23 08:02:00,64.8,50.5,29.67,WSW,238,0.0,0.0,60,0.00,,,0.00,meteohub,2013-09-23 14:02:00,
2013-09-23 08:07:00,64.8,51.1,29.67,WSW,248,0.0,0.0,61,0.00,,,0.00,meteohub,2013-09-23 14:07:00,
2013-09-23 08:12:00,65.1,50.0,29.68,WSW,248,0.0,0.0,58,0.00,,,0.00,meteohub,2013-09-23 14:12:00,
2013-09-23 08:18:00,65.7,50.0,29.68,WSW,250,0.0,0.0,57,0.00,,,0.00,meteohub,2013-09-23 14:18:00,
2013-09-23 08:23:00,65.8,50.2,29.68,WSW,250,0.0,0.0,57,0.00,,,0.00,meteohub,2013-09-23 14:23:00,
2013-09-23 08:28:00,66.2,50.0,29.68,WSW,250,0.0,0.0,56,0.00,,,0.00,meteohub,2013-09-23 14:28:00,
2013-09-23 08:33:00,66.4,50.2,29.68,WSW,250,0.0,0.0,56,0.00,,,0.00,meteohub,2013-09-23 14:33:00,
2013-09-23 08:38:00,66.6,50.4,29.68,WSW,250,0.0,0.0,56,0.00,,,0.00,meteohub,2013-09-23 14:38:00,
2013-09-23 08:43:00,66.9,50.2,29.69,WSW,251,0.0,0.0,55,0.00,,,0.00,meteohub,2013-09-23 14:43:00,
2013-09-23 08:48:00,67.5,51.3,29.69,WSW,251,0.0,0.0,56,0.00,,,0.00,meteohub,2013-09-23 14:48:00,
2013-09-23 08:54:00,67.8,50.5,29.69,WSW,251,0.0,0.0,54,0.00,,,0.00,meteohub,2013-09-23 14:54:00,
2013-09-23 08:59:00,68.7,50.4,29.70,WSW,251,0.0,0.0,52,0.00,,,0.00,meteohub,2013-09-23 14:59:00,
2013-09-23 09:04:00,69.3,50.9,29.70,WSW,251,0.0,0.0,52,0.00,,,0.00,meteohub,2013-09-23 15:04:00,
2013-09-23 09:09:00,70.2,51.8,29.70,WSW,251,0.0,0.0,52,0.00,,,0.00,meteohub,2013-09-23 15:09:00,
2013-09-23 09:14:00,70.5,50.4,29.70,WSW,252,0.0,0.0,49,0.00,,,0.00,meteohub,2013-09-23 15:14:00,
2013-09-23 09:19:00,71.2,49.5,29.70,WSW,254,0.0,0.0,46,0.00,,,0.00,meteohub,2013-09-23 15:19:00,
2013-09-23 09:24:00,71.4,49.6,29.70,West,265,0.0,0.0,46,0.00,,,0.00,meteohub,2013-09-23 15:24:00,
2013-09-23 09:30:00,71.4,50.2,29.71,West,259,0.0,0.0,47,0.00,,,0.00,meteohub,2013-09-23 15:30:00,
2013-09-23 09:35:00,72.0,50.0,29.71,West,261,0.0,0.0,46,0.00,,,0.00,meteohub,2013-09-23 15:35:00,
2013-09-23 09:40:00,72.3,49.1,29.71,West,263,0.0,0.0,44,0.00,,,0.00,meteohub,2013-09-23 15:40:00,
2013-09-23 09:45:00,72.1,49.1,29.71,West,273,0.0,0.0,44,0.00,,,0.00,meteohub,2013-09-23 15:45:00,
2013-09-23 09:50:00,72.3,48.6,29.71,West,281,0.0,0.0,43,0.00,,,0.00,meteohub,2013-09-23 15:50:00,
2013-09-23 09:55:00,72.7,50.2,29.71,West,280,0.0,0.0,45,0.00,,,0.00,meteohub,2013-09-23 15:55:00,
2013-09-23 10:00:00,73.6,49.6,29.71,West,280,0.0,0.0,43,0.00,,,0.00,meteohub,2013-09-23 16:00:00,
2013-09-23 10:06:00,74.1,48.9,29.71,West,278,0.0,0.0,41,0.00,,,0.00,meteohub,2013-09-23 16:06:00,
2013-09-23 10:11:00,74.7,47.3,29.71,West,278,0.0,0.0,38,0.00,,,0.00,meteohub,2013-09-23 16:11:00,
2013-09-23 10:16:00,75.6,47.5,29.71,West,278,0.0,0.0,37,0.00,,,0.00,meteohub,2013-09-23 16:16:00,
2013-09-23 10:21:00,76.3,48.7,29.71,West,278,0.0,0.0,38,0.00,,,0.00,meteohub,2013-09-23 16:21:00,
2013-09-23 10:26:00,77.2,48.2,29.71,West,280,0.0,0.0,36,0.00,,,0.00,meteohub,2013-09-23 16:26:00,
2013-09-23 10:31:00,77.5,46.2,29.71,West,278,0.0,0.0,33,0.00,,,0.00,meteohub,2013-09-23 16:31:00,
2013-09-23 10:36:00,76.6,46.9,29.71,NW,310,0.0,0.0,35,0.00,,,0.00,meteohub,2013-09-23 16:36:00,
2013-09-23 10:42:00,76.8,47.1,29.71,NW,322,0.0,0.0,35,0.00,,,0.00,meteohub,2013-09-23 16:42:00,
2013-09-23 10:47:00,77.5,46.2,29.71,WNW,302,0.0,0.0,33,0.00,,,0.00,meteohub,2013-09-23 16:47:00,
2013-09-23 10:52:00,78.1,45.9,29.71,East,80,0.0,0.0,32,0.00,,,0.00,meteohub,2013-09-23 16:52:00,
2013-09-23 10:57:00,78.3,45.1,29.71,NW,323,0.0,0.0,31,0.00,,,0.00,meteohub,2013-09-23 16:57:00,
2013-09-23 11:02:00,78.1,45.0,29.71,NW,314,0.0,0.0,31,0.00,,,0.00,meteohub,2013-09-23 17:02:00,
2013-09-23 11:07:00,78.3,44.2,29.71,East,84,0.0,0.0,30,0.00,,,0.00,meteohub,2013-09-23 17:07:00,
2013-09-23 11:12:00,79.0,44.1,29.71,NNW,347,0.0,0.0,29,0.00,,,0.00,meteohub,2013-09-23 17:12:00,
2013-09-23 11:17:00,79.5,44.4,29.71,WNW,286,0.0,0.0,29,0.00,,,0.00,meteohub,2013-09-23 17:17:00,
2013-09-23 11:22:00,79.9,44.8,29.71,WNW,284,0.0,0.0,29,0.00,,,0.00,meteohub,2013-09-23 17:22:00,
2013-09-23 11:27:00,79.5,43.5,29.71,West,271,0.0,0.0,28,0.00,,,0.00,meteohub,2013-09-23 17:27:00,
2013-09-23 11:32:00,77.5,42.8,29.71,WNW,302,0.0,0.0,29,0.00,,,0.00,meteohub,2013-09-23 17:32:00,
2013-09-23 11:37:00,76.8,43.0,29.71,West,268,0.0,0.0,30,0.00,,,0.00,meteohub,2013-09-23 17:37:00,
2013-09-23 11:43:00,77.2,43.3,29.71,West,268,0.0,0.0,30,0.00,,,0.00,meteohub,2013-09-23 17:43:00,
2013-09-23 11:48:00,77.2,44.2,29.71,West,261,0.0,0.0,31,0.00,,,0.00,meteohub,2013-09-23 17:48:00,
2013-09-23 11:53:00,76.8,43.0,29.71,West,277,0.0,0.0,30,0.00,,,0.00,meteohub,2013-09-23 17:53:00,
2013-09-23 11:58:00,77.4,41.7,29.70,West,277,0.0,0.0,28,0.00,,,0.00,meteohub,2013-09-23 17:58:00,
2013-09-23 12:03:00,78.1,45.0,29.71,West,269,0.0,0.0,31,0.00,,,0.00,meteohub,2013-09-23 18:03:00,
2013-09-23 12:08:00,77.7,43.0,29.70,WSW,248,0.0,0.0,29,0.00,,,0.00,meteohub,2013-09-23 18:08:00,
2013-09-23 12:14:00,77.2,43.3,29.70,WSW,256,0.0,0.0,30,0.00,,,0.00,meteohub,2013-09-23 18:14:00,
2013-09-23 12:19:00,77.5,43.7,29.70,WSW,257,0.0,0.0,30,0.00,,,0.00,meteohub,2013-09-23 18:19:00,
2013-09-23 12:24:00,78.1,44.1,29.70,WSW,248,0.0,0.0,30,0.00,,,0.00,meteohub,2013-09-23 18:24:00,
2013-09-23 12:29:00,79.0,45.7,29.70,WNW,295,0.0,0.0,31,0.00,,,0.00,meteohub,2013-09-23 18:29:00,
2013-09-23 12:34:00,79.9,43.9,29.70,WNW,290,0.0,0.0,28,0.00,,,0.00,meteohub,2013-09-23 18:34:00,
2013-09-23 12:39:00,80.4,45.3,29.70,WNW,290,0.0,0.0,29,0.00,,,0.00,meteohub,2013-09-23 18:39:00,
2013-09-23 12:45:00,81.0,43.9,29.70,WNW,290,0.0,0.0,27,0.00,,,0.00,meteohub,2013-09-23 18:45:00,
2013-09-23 12:50:00,81.7,43.5,29.70,ENE,61,0.0,0.0,26,0.00,,,0.00,meteohub,2013-09-23 18:50:00,
2013-09-23 12:55:00,82.2,43.9,29.70,NE,51,0.0,0.0,26,0.00,,,0.00,meteohub,2013-09-23 18:55:00,
2013-09-23 13:00:00,82.9,43.5,29.70,WNW,290,0.0,0.0,25,0.00,,,0.00,meteohub,2013-09-23 19:00:00,
2013-09-23 13:05:00,82.8,45.3,29.69,WNW,291,0.0,0.0,27,0.00,,,0.00,meteohub,2013-09-23 19:05:00,
2013-09-23 13:10:00,82.9,44.6,29.69,West,279,0.0,0.0,26,0.00,,,0.00,meteohub,2013-09-23 19:10:00,
2013-09-23 13:15:00,83.5,43.9,29.69,West,280,0.0,0.0,25,0.00,,,0.00,meteohub,2013-09-23 19:15:00,
2013-09-23 13:21:00,83.8,45.3,29.69,WNW,282,0.0,0.0,26,0.00,,,0.00,meteohub,2013-09-23 19:21:00,
2013-09-23 13:26:00,84.2,45.7,29.69,WNW,283,0.0,0.0,26,0.00,,,0.00,meteohub,2013-09-23 19:26:00,
2013-09-23 13:31:00,83.8,44.2,29.69,WNW,287,0.0,0.0,25,0.00,,,0.00,meteohub,2013-09-23 19:31:00,
2013-09-23 13:36:00,83.5,41.7,29.69,WSW,243,0.0,0.0,23,0.00,,,0.00,meteohub,2013-09-23 19:36:00,
2013-09-23 13:41:00,83.5,41.7,29.69,East,91,0.0,0.0,23,0.00,,,0.00,meteohub,2013-09-23 19:41:00,
2013-09-23 13:46:00,83.7,41.9,29.68,East,79,0.0,0.0,23,0.00,,,0.00,meteohub,2013-09-23 19:46:00,
2013-09-23 13:51:00,83.3,41.7,29.68,ENE,78,0.0,0.0,23,0.00,,,0.00,meteohub,2013-09-23 19:51:00,
2013-09-23 13:57:00,83.3,41.7,29.68,West,265,0.0,0.0,23,0.00,,,0.00,meteohub,2013-09-23 19:57:00,
2013-09-23 14:02:00,83.7,41.9,29.68,WNW,283,0.0,0.0,23,0.00,,,0.00,meteohub,2013-09-23 20:02:00,
2013-09-23 14:07:00,83.3,41.7,29.68,WSW,244,0.0,0.0,23,0.00,,,0.00,meteohub,2013-09-23 20:07:00,
2013-09-23 14:12:00,83.8,43.2,29.68,ENE,71,0.0,0.0,24,0.00,,,0.00,meteohub,2013-09-23 20:12:00,
2013-09-23 14:17:00,84.0,41.0,29.68,ENE,67,0.0,0.0,22,0.00,,,0.00,meteohub,2013-09-23 20:17:00,
2013-09-23 14:22:00,84.4,42.6,29.68,ENE,72,0.0,0.0,23,0.00,,,0.00,meteohub,2013-09-23 20:22:00,
2013-09-23 14:27:00,84.9,41.9,29.68,West,267,0.0,0.0,22,0.00,,,0.00,meteohub,2013-09-23 20:27:00,
2013-09-23 14:32:00,83.3,40.5,29.68,West,271,0.0,0.0,22,0.00,,,0.00,meteohub,2013-09-23 20:32:00,
2013-09-23 14:37:00,81.9,40.5,29.68,WSW,246,0.0,0.0,23,0.00,,,0.00,meteohub,2013-09-23 20:37:00,
2013-09-23 14:42:00,81.9,40.5,29.68,WSW,246,0.0,0.0,23,0.00,,,0.00,meteohub,2013-09-23 20:42:00,
2013-09-23 14:47:00,82.6,41.0,29.68,West,275,0.0,0.0,23,0.00,,,0.00,meteohub,2013-09-23 20:47:00,
2013-09-23 14:52:00,83.5,43.0,29.68,West,271,0.0,0.0,24,0.00,,,0.00,meteohub,2013-09-23 20:52:00,
2013-09-23 14:57:00,84.4,41.4,29.68,NNE,18,0.0,0.0,22,0.00,,,0.00,meteohub,2013-09-23 20:57:00,
2013-09-23 15:02:00,84.7,40.5,29.68,West,276,0.0,0.0,21,0.00,,,0.00,meteohub,2013-09-23 21:02:00,
2013-09-23 15:07:00,84.0,42.3,29.68,West,269,0.0,0.0,23,0.00,,,0.00,meteohub,2013-09-23 21:07:00,
2013-09-23 15:12:00,84.4,42.6,29.68,West,271,0.0,0.0,23,0.00,,,0.00,meteohub,2013-09-23 21:12:00,
2013-09-23 15:17:00,84.9,40.6,29.67,WNW,294,0.0,0.0,21,0.00,,,0.00,meteohub,2013-09-23 21:17:00,
2013-09-23 15:22:00,85.5,41.0,29.67,WNW,294,0.0,0.0,21,0.00,,,0.00,meteohub,2013-09-23 21:22:00,
2013-09-23 15:27:00,85.8,42.6,29.67,WNW,298,0.0,0.0,22,0.00,,,0.00,meteohub,2013-09-23 21:27:00,
2013-09-23 15:32:00,86.2,40.5,29.67,WNW,298,0.0,0.0,20,0.00,,,0.00,meteohub,2013-09-23 21:32:00,
2013-09-23 15:37:00,86.0,40.3,29.67,WNW,300,0.0,0.0,20,0.00,,,0.00,meteohub,2013-09-23 21:37:00,
2013-09-23 15:42:00,85.6,41.2,29.67,WNW,288,0.0,0.0,21,0.00,,,0.00,meteohub,2013-09-23 21:42:00,
2013-09-23 15:47:00,85.3,42.1,29.67,WNW,290,0.0,0.0,22,0.00,,,0.00,meteohub,2013-09-23 21:47:00,
2013-09-23 15:52:00,85.3,42.1,29.67,WNW,287,0.0,0.0,22,0.00,,,0.00,meteohub,2013-09-23 21:52:00,
2013-09-23 15:57:00,85.8,42.6,29.67,WNW,286,0.0,0.0,22,0.00,,,0.00,meteohub,2013-09-23 21:57:00,
2013-09-23 16:03:00,86.4,41.9,29.67,West,275,0.0,0.0,21,0.00,,,0.00,meteohub,2013-09-23 22:03:00,
2013-09-23 16:08:00,86.5,40.6,29.67,West,275,0.0,0.0,20,0.00,,,0.00,meteohub,2013-09-23 22:08:00,
2013-09-23 16:13:00,86.9,42.3,29.67,West,275,0.0,0.0,21,0.00,,,0.00,meteohub,2013-09-23 22:13:00,
2013-09-23 16:18:00,87.3,42.6,29.66,West,275,0.0,0.0,21,0.00,,,0.00,meteohub,2013-09-23 22:18:00,
2013-09-23 16:23:00,87.3,42.6,29.67,West,271,0.0,0.0,21,0.00,,,0.00,meteohub,2013-09-23 22:23:00,
2013-09-23 16:28:00,87.3,42.6,29.67,West,271,0.0,0.0,21,0.00,,,0.00,meteohub,2013-09-23 22:28:00,
2013-09-23 16:34:00,87.1,42.4,29.67,West,271,0.0,0.0,21,0.00,,,0.00,meteohub,2013-09-23 22:34:00,
2013-09-23 16:39:00,86.7,40.8,29.67,West,271,0.0,0.0,20,0.00,,,0.00,meteohub,2013-09-23 22:39:00,
2013-09-23 16:44:00,86.7,39.6,29.66,West,271,0.0,0.0,19,0.00,,,0.00,meteohub,2013-09-23 22:44:00,
2013-09-23 16:49:00,86.2,40.5,29.66,East,92,0.0,0.0,20,0.00,,,0.00,meteohub,2013-09-23 22:49:00,
2013-09-23 16:54:00,85.8,40.1,29.66,East,101,0.0,0.0,20,0.00,,,0.00,meteohub,2013-09-23 22:54:00,
2013-09-23 16:59:00,85.5,41.0,29.67,East,85,0.0,0.0,21,0.00,,,0.00,meteohub,2013-09-23 22:59:00,
2013-09-23 17:04:00,85.3,41.0,29.67,WNW,283,0.0,0.0,21,0.00,,,0.00,meteohub,2013-09-23 23:04:00,
2013-09-23 17:10:00,85.5,41.0,29.67,WNW,283,0.0,0.0,21,0.00,,,0.00,meteohub,2013-09-23 23:10:00,
2013-09-23 17:15:00,85.6,41.2,29.67,WNW,283,0.0,0.0,21,0.00,,,0.00,meteohub,2013-09-23 23:15:00,
2013-09-23 17:20:00,85.8,40.1,29.67,WNW,283,0.0,0.0,20,0.00,,,0.00,meteohub,2013-09-23 23:20:00,
2013-09-23 17:25:00,85.8,41.4,29.67,WNW,283,0.0,0.0,21,0.00,,,0.00,meteohub,2013-09-23 23:25:00,
2013-09-23 17:30:00,85.5,39.7,29.67,WNW,283,0.0,0.0,20,0.00,,,0.00,meteohub,2013-09-23 23:30:00,
2013-09-23 17:35:00,85.1,39.6,29.67,WNW,283,0.0,0.0,20,0.00,,,0.00,meteohub,2013-09-23 23:35:00,
2013-09-23 17:40:00,85.3,41.0,29.67,WNW,283,0.0,0.0,21,0.00,,,0.00,meteohub,2013-09-23 23:40:00,
2013-09-23 17:46:00,84.7,39.2,29.67,WNW,283,0.0,0.0,20,0.00,,,0.00,meteohub,2013-09-23 23:46:00,
2013-09-23 17:51:00,84.4,41.4,29.68,WNW,283,0.0,0.0,22,0.00,,,0.00,meteohub,2013-09-23 23:51:00,
2013-09-23 17:56:00,84.2,40.1,29.67,WNW,283,0.0,0.0,21,0.00,,,0.00,meteohub,2013-09-23 23:56:00,
2013-09-23 18:01:00,84.0,41.0,29.67,WNW,283,0.0,0.0,22,0.00,,,0.00,meteohub,2013-09-24 00:01:00,
2013-09-23 18:06:00,84.0,39.9,29.68,WNW,283,0.0,0.0,21,0.00,,,0.00,meteohub,2013-09-24 00:06:00,
2013-09-23 18:12:00,83.1,40.3,29.67,East,92,0.0,0.0,22,0.00,,,0.00,meteohub,2013-09-24 00:12:00,
2013-09-23 18:17:00,82.9,40.1,29.67,East,92,0.0,0.0,22,0.00,,,0.00,meteohub,2013-09-24 00:17:00,
2013-09-23 18:22:00,82.9,40.1,29.68,East,89,0.0,0.0,22,0.00,,,0.00,meteohub,2013-09-24 00:22:00,
2013-09-23 18:27:00,82.8,40.1,29.68,East,89,0.0,0.0,22,0.00,,,0.00,meteohub,2013-09-24 00:27:00,
2013-09-23 18:32:00,82.8,40.1,29.68,East,89,0.0,0.0,22,0.00,,,0.00,meteohub,2013-09-24 00:32:00,
2013-09-23 18:37:00,82.0,39.4,29.68,East,88,0.0,0.0,22,0.00,,,0.00,meteohub,2013-09-24 00:37:00,
2013-09-23 18:42:00,81.7,39.2,29.68,East,86,0.0,0.0,22,0.00,,,0.00,meteohub,2013-09-24 00:42:00,
2013-09-23 18:47:00,81.0,39.7,29.68,East,85,0.0,0.0,23,0.00,,,0.00,meteohub,2013-09-24 00:47:00,
2013-09-23 18:52:00,80.6,39.4,29.68,East,84,0.0,0.0,23,0.00,,,0.00,meteohub,2013-09-24 00:52:00,
2013-09-23 18:57:00,80.1,40.1,29.68,East,84,0.0,0.0,24,0.00,,,0.00,meteohub,2013-09-24 00:57:00,
2013-09-23 19:02:00,79.3,39.4,29.68,East,84,0.0,0.0,24,0.00,,,0.00,meteohub,2013-09-24 01:02:00,
2013-09-23 19:08:00,78.8,39.9,29.68,East,84,0.0,0.0,25,0.00,,,0.00,meteohub,2013-09-24 01:08:00,
2013-09-23 19:13:00,78.3,39.6,29.69,East,84,0.0,0.0,25,0.00,,,0.00,meteohub,2013-09-24 01:13:00,
2013-09-23 19:18:00,77.7,40.1,29.69,East,84,0.0,0.0,26,0.00,,,0.00,meteohub,2013-09-24 01:18:00,
2013-09-23 19:23:00,77.4,39.7,29.69,East,84,0.0,0.0,26,0.00,,,0.00,meteohub,2013-09-24 01:23:00,
2013-09-23 19:28:00,76.8,40.3,29.69,East,84,0.0,0.0,27,0.00,,,0.00,meteohub,2013-09-24 01:28:00,
2013-09-23 19:33:00,76.3,39.9,29.69,East,84,0.0,0.0,27,0.00,,,0.00,meteohub,2013-09-24 01:33:00,
2013-09-23 19:38:00,75.7,40.3,29.69,East,84,0.0,0.0,28,0.00,,,0.00,meteohub,2013-09-24 01:38:00,
2013-09-23 19:44:00,75.6,41.0,29.70,East,84,0.0,0.0,29,0.00,,,0.00,meteohub,2013-09-24 01:44:00,
2013-09-23 19:49:00,75.0,41.5,29.70,East,84,0.0,0.0,30,0.00,,,0.00,meteohub,2013-09-24 01:49:00,
2013-09-23 19:54:00,74.7,42.1,29.70,East,84,0.0,0.0,31,0.00,,,0.00,meteohub,2013-09-24 01:54:00,
2013-09-23 19:59:00,74.1,41.5,29.70,East,84,0.0,0.0,31,0.00,,,0.00,meteohub,2013-09-24 01:59:00,
2013-09-23 20:04:00,73.8,41.2,29.71,East,84,0.0,0.0,31,0.00,,,0.00,meteohub,2013-09-24 02:04:00,
2013-09-23 20:09:00,73.4,41.0,29.71,East,84,0.0,0.0,31,0.00,,,0.00,meteohub,2013-09-24 02:09:00,
2013-09-23 20:15:00,73.0,41.4,29.71,East,84,0.0,0.0,32,0.00,,,0.00,meteohub,2013-09-24 02:15:00,
2013-09-23 20:20:00,72.7,41.2,29.72,East,84,0.0,0.0,32,0.00,,,0.00,meteohub,2013-09-24 02:20:00,
2013-09-23 20:25:00,72.3,39.9,29.72,East,84,0.0,0.0,31,0.00,,,0.00,meteohub,2013-09-24 02:25:00,
2013-09-23 20:31:00,72.1,40.6,29.72,East,84,0.0,0.0,32,0.00,,,0.00,meteohub,2013-09-24 02:31:00,
2013-09-23 20:36:00,72.0,40.5,29.72,East,84,0.0,0.0,32,0.00,,,0.00,meteohub,2013-09-24 02:36:00,
2013-09-23 20:41:00,71.8,41.2,29.73,East,84,0.0,0.0,33,0.00,,,0.00,meteohub,2013-09-24 02:41:00,
2013-09-23 20:46:00,71.2,40.6,29.73,East,84,0.0,0.0,33,0.00,,,0.00,meteohub,2013-09-24 02:46:00,
2013-09-23 20:51:00,70.9,40.3,29.73,East,84,0.0,0.0,33,0.00,,,0.00,meteohub,2013-09-24 02:51:00,
2013-09-23 20:56:00,70.5,40.8,29.73,East,84,0.0,0.0,34,0.00,,,0.00,meteohub,2013-09-24 02:56:00,
2013-09-23 21:02:00,70.2,40.5,29.74,East,84,0.0,0.0,34,0.00,,,0.00,meteohub,2013-09-24 03:02:00,
2013-09-23 21:07:00,69.6,41.5,29.74,East,84,0.0,0.0,36,0.00,,,0.00,meteohub,2013-09-24 03:07:00,
2013-09-23 21:12:00,69.3,41.2,29.74,East,84,0.0,0.0,36,0.00,,,0.00,meteohub,2013-09-24 03:12:00,
2013-09-23 21:17:00,68.9,40.1,29.74,East,84,0.0,0.0,35,0.00,,,0.00,meteohub,2013-09-24 03:17:00,
2013-09-23 21:23:00,68.7,39.9,29.75,East,84,0.0,0.0,35,0.00,,,0.00,meteohub,2013-09-24 03:23:00,
2013-09-23 21:28:00,68.7,40.6,29.75,East,84,0.0,0.0,36,0.00,,,0.00,meteohub,2013-09-24 03:28:00,
2013-09-23 21:33:00,68.7,40.6,29.75,East,84,0.0,0.0,36,0.00,,,0.00,meteohub,2013-09-24 03:33:00,
2013-09-23 21:38:00,68.4,41.0,29.75,East,84,0.0,0.0,37,0.00,,,0.00,meteohub,2013-09-24 03:38:00,
2013-09-23 21:43:00,68.0,42.1,29.75,East,84,0.0,0.0,39,0.00,,,0.00,meteohub,2013-09-24 03:43:00,
2013-09-23 21:48:00,67.5,42.3,29.75,East,84,0.0,0.0,40,0.00,,,0.00,meteohub,2013-09-24 03:48:00,
2013-09-23 21:53:00,67.3,42.1,29.75,East,84,0.0,0.0,40,0.00,,,0.00,meteohub,2013-09-24 03:53:00,
2013-09-23 21:59:00,66.7,41.7,29.76,East,84,0.0,0.0,40,0.00,,,0.00,meteohub,2013-09-24 03:59:00,
2013-09-23 22:01:00,66.7,41.7,29.75,East,84,0.0,0.0,40,0.00,,,0.00,meteohub,2013-09-24 04:01:00,
2013-09-23 22:02:00,66.7,41.7,29.76,East,84,0.0,0.0,40,0.00,,,0.00,meteohub,2013-09-24 04:02:00,
2013-09-23 22:06:00,66.6,41.5,29.75,East,84,0.0,0.0,40,0.00,,,0.00,meteohub,2013-09-24 04:06:00,
2013-09-23 22:07:00,66.6,41.5,29.76,East,84,0.0,0.0,40,0.00,,,0.00,meteohub,2013-09-24 04:07:00,
2013-09-23 22:12:00,66.4,40.6,29.76,East,84,0.0,0.0,39,0.00,,,0.00,meteohub,2013-09-24 04:12:00,
2013-09-23 22:17:00,66.0,39.7,29.76,East,84,0.0,0.0,38,0.00,,,0.00,meteohub,2013-09-24 04:17:00,
2013-09-23 22:22:00,66.0,40.3,29.77,East,84,0.0,0.0,39,0.00,,,0.00,meteohub,2013-09-24 04:22:00,
2013-09-23 22:27:00,66.0,41.0,29.77,East,84,0.0,0.0,40,0.00,,,0.00,meteohub,2013-09-24 04:27:00,
2013-09-23 22:33:00,65.7,40.6,29.77,East,84,0.0,0.0,40,0.00,,,0.00,meteohub,2013-09-24 04:33:00,
2013-09-23 22:38:00,65.5,41.2,29.77,East,84,0.0,0.0,41,0.00,,,0.00,meteohub,2013-09-24 04:38:00,
2013-09-23 22:43:00,65.1,41.5,29.77,East,84,0.0,0.0,42,0.00,,,0.00,meteohub,2013-09-24 04:43:00,
2013-09-23 22:48:00,64.8,42.3,29.77,East,84,0.0,0.0,44,0.00,,,0.00,meteohub,2013-09-24 04:48:00,
2013-09-23 22:53:00,64.2,43.0,29.78,East,84,0.0,0.0,46,0.00,,,0.00,meteohub,2013-09-24 04:53:00,
2013-09-23 22:58:00,64.0,43.3,29.78,East,84,0.0,0.0,47,0.00,,,0.00,meteohub,2013-09-24 04:58:00,
2013-09-23 23:04:00,63.7,43.7,29.78,East,84,0.0,0.0,48,0.00,,,0.00,meteohub,2013-09-24 05:04:00,
2013-09-23 23:09:00,63.1,44.8,29.78,East,84,0.0,0.0,51,0.00,,,0.00,meteohub,2013-09-24 05:09:00,
2013-09-23 23:14:00,63.0,44.6,29.78,East,84,0.0,0.0,51,0.00,,,0.00,meteohub,2013-09-24 05:14:00,
2013-09-23 23:19:00,62.8,47.3,29.78,East,84,0.0,0.0,57,0.00,,,0.00,meteohub,2013-09-24 05:19:00,
2013-09-23 23:24:00,62.4,46.6,29.78,East,84,0.0,0.0,56,0.00,,,0.00,meteohub,2013-09-24 05:24:00,
2013-09-23 23:29:00,62.2,47.3,29.78,East,84,0.0,0.0,58,0.00,,,0.00,meteohub,2013-09-24 05:29:00,
2013-09-23 23:34:00,62.1,46.6,29.78,East,84,0.0,0.0,57,0.00,,,0.00,meteohub,2013-09-24 05:34:00,
2013-09-23 23:39:00,61.9,47.5,29.78,East,84,0.0,0.0,59,0.00,,,0.00,meteohub,2013-09-24 05:39:00,
2013-09-23 23:45:00,61.5,46.2,29.78,East,84,0.0,0.0,57,0.00,,,0.00,meteohub,2013-09-24 05:45:00,
2013-09-23 23:50:00,61.3,46.4,29.78,East,84,0.0,0.0,58,0.00,,,0.00,meteohub,2013-09-24 05:50:00,
2013-09-23 23:55:00,61.3,46.0,29.78,East,84,0.0,0.0,57,0.00,,,0.00,meteohub,2013-09-24 05:55:00,